Location: Napier
(39.4830°S, 176.9170°E)
Time: 06:52:17
(UTC+12:00)

Resurs 1-3 - Pass Details

Date: 24 January 2019
Orbit: 630 x 633 km, 98.0° (Epoch: 22 April)

Event Time Altitude Azimuth Distance (km) Brightness Sun altitude
Rises 21:49:23 0° 163° (SSE) 2,963 7.3 -12.8°
Reaches altitude 10° 21:51:39 10° 157° (SSE) 2,045 6.4 -13.1°
Maximum altitude 21:56:01 52° 80° (E) 793 3.8 -13.8°
Enters shadow 21:59:49 13° 5° (N) 1,823 5.6 -14.3°
